Regional Weather Roundup
Issued by NWS

Home | Current Version | Previous Version | Graphics & Text | Print | Product List | Glossary On
Versions: 1 2 3 4 5 6 7 8 9 10 11 12 13 14 15 16 17 18 19 20 21 22 23 24 25 26 27 28 29 30 31 32 33 34 35 36 37 38 39 40 41 42 43 44 45 46 47 48 49
000
ASUS45 KSLC 250310
RWRUT

UTAH REGIONAL WEATHER ROUNDUP
NATIONAL WEATHER SERVICE SALT LAKE CITY UT
800 PM MST WED DEC 24 2014

UTZ001>011-023>025-250400-

NORTHERN UTAH

CITY           SKY/WX    TMP DP  RH WIND       PRES   REMARKS
BRIGHAM CITY   CLOUDY    36  26  66 CALM      29.51F
HILL AFB       CLOUDY    41  22  47 SW15      29.48F
LOGAN          CLOUDY    32  27  81 CALM      29.49F
OGDEN          CLOUDY    41  23  48 SW9       29.48F
PROVO AIRPORT  CLOUDY    37  23  56 CALM      29.57F
SALT LAKE CITY CLOUDY    46  24  42 S18G33    29.49F
VERNAL         MOCLDY    26  17  68 NW5       29.73F WCI  20
WENDOVER       PTCLDY    30  19  64 CALM      29.49F
HEBER CITY     MIX PCPN  37  28  70 S14G23    29.60F WCI  29
WEST JORDAN    CLOUDY    41  27  56 S18G24    29.53F

$$

UTZ012>022-026-027-250400-

SOUTHERN/CENTRAL UTAH

CITY           SKY/WX    TMP DP  RH WIND       PRES   REMARKS
BLANDING       CLOUDY    30  20  65 CALM      29.94F
BRYCE CANYON   CLOUDY    27  15  61 SE15      29.78F WCI  15
CEDAR CITY     CLOUDY    42  18  37 SW10G28   29.69F
DELTA          CLOUDY    42  22  45 S20G31    29.57F
MILFORD        MOCLDY    38  16  40 S21G31    29.64F WCI  28
MOAB/CYNLANDS  CLEAR     30  19  63 S5        29.79F WCI  25
PRICE          CLOUDY    24  12  60 NE7       29.76F WCI  16
ST GEORGE      CLOUDY    41  18  38 CALM      29.80F
KANAB          CLOUDY    36  23  60 N3        29.83F

$$

REGIONAL REPORTS     COLORADO/ARIZONA

CITY           SKY/WX    TMP DP  RH WIND       PRES   REMARKS
CRAIG, CO      CLOUDY    24  16  71 CALM      29.72F
GRAND JUNCTION CLOUDY    29  21  72 NE7       29.82F WCI  22
RIFLE          CLOUDY    26  17  68 CALM      29.83F
MONTROSE       CLOUDY    28  18  66 CALM      29.85F
CORTEZ         CLEAR     29  20  69 NE3       29.88F
PAGE, AZ       CLOUDY    39  17  41 W3        29.81F
GRAND CANYON   CLOUDY    37  15  40 SW12G20   29.87F WCI  29
KINGMAN        CLOUDY    44  16  32 CALM      29.84F
FLAGSTAFF      CLOUDY    34  13  41 SW12      29.91F WCI  25

$$

REGIONAL REPORTS    NEVADA/IDAHO/WYOMING

CITY           SKY/WX    TMP DP  RH WIND       PRES   REMARKS
LAS VEGAS, NV  MOCLDY    47  21  35 S5        29.72F
ELY            PTCLDY    37  22  54 S17G29    29.56F WCI  27
ELKO           FLURRIES  33  32  96 SW15G28   29.51S WCI  23
POCATELLO, ID  CLOUDY    37  29  72 S13       29.44F WCI  29
EVANSTON, WY   LGT SNOW  33  29  85 SW24G32   29.54F FOG     WCI  20
ROCK SPRINGS   CLOUDY    28  18  66 SE12      29.55F WCI  18
KEMMERER       CLOUDY    32  27  80 SW14      29.53F WCI  22

$$



USA.gov is the U.S. government's official web portal to all federal, state and local government web resources and services.